Showing default

FLOCK 4BE 12, 60560

Orbit data source: Space-Track

FLOCK 4BE 12, 60560 is a payload satellite owned by Planet (US) in SSO that was launched on Fri, 16 Aug 2024 UTC via an FALCON 9 launch vehicle from the Air Force Western Test Range (AFWTR). Payload-class satellites include a variety of spacecraft equipped with specific instruments for various scientific and technological missions. These include communications satellites like Starlink; space stations such as the ISS; scientific satellites like the Hubble; Earth observation satellites from companies like Planet Labs, Umbra, and HawkEye 360; GPS; miniature CubeSats for education and research; and military/defense satellites.

Loading next visibility...
Identifier
60560, 2024-149CW
Orbit
SSO
Country
Flag of USUS
Related business
Manufacturer
Planet
Mission
Non-operational Commercial Imaging
Bus & Motor
CUBESAT 3U, Unknown motor
Mass
5.7 kg wet, 5.7 kg dry
Launch date (UTC)
2024-08-16 (2 years ago)
Launch vehicle
FALCON 9
Launch site
Air Force Western Test Range (AFWTR)
Object type
Payload
Rocket body
Debris
Shape & HBR
Box + 2 Pan, 1.0 m
Radar Cross Section
0.072 m², Medium (>0.1 m² and < 1m²)

Expand to show TLE details & history
Last TLE update: 13 hours ago

TLE from 13 hours ago
0 FLOCK 4BE 12
1 60560U 24149CW  26133.19118984  .00089532  00000-0  94489-3 0  9997
2 60560  97.3657 219.1577 0002458 158.7446 201.3916 15.63931975 97098
Epoch: 2026-05-13T04:35Z
TLE epoch observation values (Epoch: 2026-05-13T04:35:18.802Z)
Latitude
0.00005°
Longitude
-80.62541°
Altitude
381.009 km
Speed
7.68 km/s
True Right ascension
14h 36m 37s
True Declination
0° 00' 00"
Sunlit
Object was in full shadow at epoch
Visualization orbit readout
Latitude
Unknown
Longitude
Unknown
Altitude
Unknown
Speed
Unknown
Apparent Right ascension
Unknown
Apparent Declination
Unknown
Sunlit
N/A
Visualization observer readout
Local Sidereal Time
01:52:54
Azimuth
Unknown
Elevation
Unknown
Doppler factor
Unknown
Orbital elements
Apogee altitude
374.877 km
Perigee altitude
371.558 km
Semi-major axis
6,751.355 km
Eccentricity
0.00025
Inclination
97.3657°
RAAN
219.1577°
Arg. of periapsis
158.7446°
True anomaly
201.38133°
Mean anomaly
201.3916°
Eccentric anomaly
201.38646°
Mean motion
3.91252 °/min
Orbital period
92.01 mins
BSTAR
0.00094489
Loading maneuver chart data...
Computing Atmospheric mass density...
Loading historical data...
Loading historical data...
Loading historical data...
Loading historical data...
Loading historical data...
Loading historical data...
Loading historical data...

Documentation

Showing up to 5 results
|